TimePST,TemperatureF,Dew PointF,Humidity,Sea Level PressureIn,VisibilityMPH,Wind Direction,Wind SpeedMPH,Gust SpeedMPH,PrecipitationIn,Events,Conditions,WindDirDegrees,DateUTC
12:52 AM,41.0,19.0,41,29.97,10.0,NE,5.8,-,N/A,,Clear,40,2012-12-09 08:52:00
1:52 AM,37.9,16.0,41,29.98,10.0,SE,3.5,-,N/A,,Clear,130,2012-12-09 09:52:00
2:52 AM,39.0,18.0,43,29.97,10.0,ENE,4.6,-,N/A,,Clear,70,2012-12-09 10:52:00
3:52 AM,39.0,19.0,45,29.98,10.0,Calm,Calm,-,N/A,,Clear,0,2012-12-09 11:52:00
4:52 AM,39.9,18.0,41,30.00,10.0,West,3.5,-,N/A,,Clear,270,2012-12-09 12:52:00
5:52 AM,42.1,19.0,40,30.02,10.0,Calm,Calm,-,N/A,,Clear,0,2012-12-09 13:52:00
6:52 AM,39.9,19.0,43,30.06,10.0,Calm,Calm,-,N/A,,Clear,0,2012-12-09 14:52:00
7:52 AM,37.9,19.0,47,30.08,10.0,Calm,Calm,-,N/A,,Clear,0,2012-12-09 15:52:00
8:52 AM,48.9,21.0,33,30.08,10.0,Calm,Calm,-,N/A,,Clear,0,2012-12-09 16:52:00
9:14 AM,53.6,21.2,28,30.13,10.0,NNE,17.3,24.2,N/A,,Clear,20,2012-12-09 17:14:00
9:52 AM,54.0,21.0,28,30.10,10.0,NNE,11.5,-,N/A,,Clear,20,2012-12-09 17:52:00
10:52 AM,55.0,21.0,27,30.10,10.0,NE,13.8,-,N/A,,Clear,40,2012-12-09 18:52:00
11:52 AM,57.0,19.0,23,30.10,10.0,NNE,19.6,26.5,N/A,,Clear,30,2012-12-09 19:52:00
12:52 PM,57.0,19.0,23,30.11,10.0,NE,16.1,-,N/A,,Clear,50,2012-12-09 20:52:00
1:52 PM,57.9,19.0,22,30.12,10.0,ENE,16.1,24.2,N/A,,Clear,60,2012-12-09 21:52:00
2:52 PM,57.9,18.0,21,30.11,10.0,NE,15.0,20.7,N/A,,Clear,50,2012-12-09 22:52:00
3:52 PM,55.9,18.0,23,30.12,10.0,NNE,17.3,-,N/A,,Clear,30,2012-12-09 23:52:00
4:52 PM,52.0,18.0,26,30.15,10.0,NNE,11.5,-,N/A,,Clear,20,2012-12-10 00:52:00
5:52 PM,48.9,18.0,29,30.16,10.0,NNE,10.4,-,N/A,,Clear,20,2012-12-10 01:52:00
6:52 PM,48.9,17.1,28,30.18,10.0,NE,17.3,-,N/A,,Clear,40,2012-12-10 02:52:00
7:52 PM,46.9,16.0,29,30.21,10.0,East,3.5,-,N/A,,Clear,90,2012-12-10 03:52:00
8:52 PM,46.0,16.0,30,30.21,10.0,NNE,15.0,-,N/A,,Clear,30,2012-12-10 04:52:00
9:52 PM,45.0,15.1,30,30.21,10.0,NE,12.7,-,N/A,,Clear,40,2012-12-10 05:52:00
10:52 PM,43.0,16.0,34,30.22,10.0,NE,8.1,-,N/A,,Clear,50,2012-12-10 06:52:00
11:52 PM,44.1,15.1,31,30.22,10.0,NNE,10.4,-,N/A,,Clear,30,2012-12-10 07:52:00